2023/01/26 00:00:00,94.7,-7.5
2023/01/26 00:10:00,94.6,-8.2
2023/01/26 00:20:00,94.5,-8.4
2023/01/26 00:30:00,94.4,-8.9
2023/01/26 00:40:00,94.4,-8.9
2023/01/26 00:50:00,94.3,-8.9
2023/01/26 01:00:00,94.2,-9.2
2023/01/26 01:10:00,94.1,-9.1
2023/01/26 01:20:00,94.0,-9.2
2023/01/26 01:30:00,93.9,-9.3
2023/01/26 01:40:00,93.7,-9.3
2023/01/26 01:50:00,93.7,-9.4
2023/01/26 02:00:00,93.6,-9.5
2023/01/26 02:10:00,93.5,-9.5
2023/01/26 02:20:00,93.5,-9.6
2023/01/26 02:30:00,93.3,-9.7
2023/01/26 02:40:00,93.2,-10.3
2023/01/26 02:50:00,93.1,-10.0
2023/01/26 03:00:00,93.0,-10.0
2023/01/26 03:10:00,92.9,-9.7
2023/01/26 03:20:00,92.8,-9.7
2023/01/26 03:30:00,92.9,-9.9
2023/01/26 03:40:00,92.8,-9.7
2023/01/26 03:50:00,92.9,-9.8
2023/01/26 04:00:00,92.7,-10.0
2023/01/26 04:10:00,92.4,-9.9
2023/01/26 04:20:00,92.4,-9.6
2023/01/26 04:30:00,92.5,-9.5
2023/01/26 04:40:00,92.4,-8.9
2023/01/26 04:50:00,92.3,-8.4
2023/01/26 05:00:00,92.1,-8.2
2023/01/26 05:10:00,91.9,-7.6
2023/01/26 05:20:00,91.7,-7.4
2023/01/26 05:30:00,91.6,-7.3
2023/01/26 05:40:00,91.4,-7.1
2023/01/26 05:50:00,91.2,-6.3
2023/01/26 06:00:00,90.9,-6.0
2023/01/26 06:10:00,90.8,-5.9
2023/01/26 06:20:00,90.8,-5.5
2023/01/26 06:30:00,90.7,-5.2
2023/01/26 06:40:00,90.7,-5.0
2023/01/26 06:50:00,90.8,-5.0
2023/01/26 07:00:00,90.8,-4.9
2023/01/26 07:10:00,90.8,-4.9
2023/01/26 07:20:00,90.8,-4.8
2023/01/26 07:30:00,90.8,-4.9
2023/01/26 07:40:00,90.9,-5.1
2023/01/26 07:50:00,90.6,-5.6
2023/01/26 08:00:00,90.3,-5.7
2023/01/26 08:10:00,90.2,-6.3
2023/01/26 08:20:00,90.1,-6.2
2023/01/26 08:30:00,90.1,-6.1
2023/01/26 08:40:00,90.2,-5.8
2023/01/26 08:50:00,90.4,-5.1
2023/01/26 09:00:00,90.3,-4.2
2023/01/26 09:10:00,90.1,-4.0
2023/01/26 09:20:00,90.0,-3.3
2023/01/26 09:30:00,90.0,-2.6
2023/01/26 09:40:00,89.9,-1.4
2023/01/26 09:50:00,90.1,-0.8
2023/01/26 10:00:00,90.3,-0.2
2023/01/26 10:10:00,90.2, 0.6
2023/01/26 10:20:00,89.9, 1.0
2023/01/26 10:30:00,89.7, 0.9
2023/01/26 10:40:00,89.7, 1.0
2023/01/26 10:50:00,89.8, 1.1
2023/01/26 11:00:00,89.6, 1.4
2023/01/26 11:10:00,89.8, 1.7
2023/01/26 11:20:00,89.7, 2.0
2023/01/26 11:30:00,89.3, 2.6
2023/01/26 11:40:00,88.7, 2.6
2023/01/26 11:50:00,88.4, 2.7
2023/01/26 12:00:00,88.2, 2.8
2023/01/26 12:10:00,88.1, 2.1
2023/01/26 12:20:00,87.8, 1.3
2023/01/26 12:30:00,87.8, 2.1
2023/01/26 12:40:00,87.5, 3.2
2023/01/26 12:50:00,87.4, 3.1
2023/01/26 13:00:00,86.9, 2.7
2023/01/26 13:10:00,86.6, 1.4
2023/01/26 13:20:00,86.7, 1.1
2023/01/26 13:30:00,86.9, 0.8
2023/01/26 13:40:00,86.8, 0.8
2023/01/26 13:50:00,86.7, 1.2
2023/01/26 14:00:00,86.6, 0.5
2023/01/26 14:10:00,86.4, 1.4
2023/01/26 14:20:00,86.3, 1.9
2023/01/26 14:30:00,86.1, 1.4
2023/01/26 14:40:00,85.9, 1.3
2023/01/26 14:50:00,94.5, 1.4
2023/01/26 15:00:00,103.1, 0.6
2023/01/26 15:10:00,102.9, 1.0
2023/01/26 15:20:00,102.9, 0.5
2023/01/26 15:30:00,102.8,-0.1
2023/01/26 15:40:00,102.7,-0.1
2023/01/26 15:50:00,102.6,-0.2
2023/01/26 16:00:00,102.5,-0.2
2023/01/26 16:10:00,102.5, 0.5
2023/01/26 16:20:00,102.3,-0.3
2023/01/26 16:30:00,102.2,-0.2
2023/01/26 16:40:00,102.1,-0.1
2023/01/26 16:50:00,102.1,-0.4
2023/01/26 17:00:00,102.0,-0.7
2023/01/26 17:10:00,101.9,-0.7
2023/01/26 17:20:00,102.0,-0.7
2023/01/26 17:30:00,101.9,-0.9
2023/01/26 17:40:00,101.9,-1.1
2023/01/26 17:50:00,102.2,-1.1
2023/01/26 18:00:00,102.2,-1.0
2023/01/26 18:10:00,102.1,-1.0
2023/01/26 18:20:00,102.2,-1.1
2023/01/26 18:30:00,102.2,-1.0
2023/01/26 18:40:00,102.2,-1.2
2023/01/26 18:50:00,102.3,-1.1
2023/01/26 19:00:00,102.5,-1.3
2023/01/26 19:10:00,102.4,-1.3
2023/01/26 19:20:00,102.2,-1.2
2023/01/26 19:30:00,102.1,-1.3
2023/01/26 19:40:00,102.1,-1.2
2023/01/26 19:50:00,102.0,-1.4
2023/01/26 20:00:00,102.0,-0.9
2023/01/26 20:10:00,101.9,-1.6
2023/01/26 20:20:00,101.9,-1.4
2023/01/26 20:30:00,101.9,-1.5
2023/01/26 20:40:00,101.7,-1.3
2023/01/26 20:50:00,101.6,-1.2
2023/01/26 21:00:00,101.5,-1.3
2023/01/26 21:10:00,101.4,-1.5
2023/01/26 21:20:00,101.3,-1.5
2023/01/26 21:30:00,101.3,-1.6
2023/01/26 21:40:00,101.3,-1.6
2023/01/26 21:50:00,101.2,-1.5
2023/01/26 22:00:00,101.2,-1.5
2023/01/26 22:10:00,101.1,-1.5
2023/01/26 22:20:00,100.8,-1.5
2023/01/26 22:30:00,100.7,-1.6
2023/01/26 22:40:00,100.7,-1.7
2023/01/26 22:50:00,100.7,-1.5
2023/01/26 23:00:00,100.6,-1.8
2023/01/26 23:10:00,100.5,-1.6
2023/01/26 23:20:00,100.4,-1.8
2023/01/26 23:30:00,100.3,-1.8
2023/01/26 23:40:00,100.3,-1.6
2023/01/26 23:50:00,100.2,-2.0
